Weather History for Fort Eustis, VA

Change the Weather History Date:

Wednesday, August 7, 2013

  Actual Average Record
Temperature  
Mean Temperature 78 °F -  
Max Temperature 85 °F 85 °F 95 °F (2007)
Min Temperature 70 °F 70 °F 66 °F (2002)
Cooling Degree Days 12    
Growing Degree Days 28 (Base 50)    
Moisture  
Dew Point 70 °F    
Average Humidity 78    
Maximum Humidity 93    
Minimum Humidity 61    
Precipitation  
Precipitation 0.00 in - - ()
Sea Level Pressure  
Sea Level Pressure 30.08 in    
Wind  
Wind Speed 6 mph (SSE)    
Max Wind Speed 10 mph    
Max Gust Speed -    
Visibility 10 miles    
Events      
Averages and records for this station are not official NWS values.
T = Trace of Precipitation, MM = Missing Value Source: NWS Daily Summary

Daily Weather History Graph

Daily Weather History Graph

Search for Another Location

Airport:

Trip Planner

Search our weather history database for the weather conditions in past years. The results will help you decide how hot, cold, wet, or windy it might be!

Date:

Astronomy

Aug. 07, 2013 Rise Set
Actual Time 6:16 AM EDT 8:07 PM EDT
Civil Twilight 5:48 AM EDT 8:35 PM EDT
Nautical Twilight 5:13 AM EDT 9:09 PM EDT
Astronomical Twilight 4:37 AM EDT 9:46 PM EDT
Moon 7:00 AM EDT (8/7) 8:16 PM EDT (8/7)
Length of Visible Light 14h 47m
Length of Day
13h 50m
New Moon, 1% of the Moon is Illuminated
Aug 7
New Moon
Aug 14
First Quarter
Aug 20
Full
Aug 28
Last Quarter
Sep 5
New

Hourly Weather History & Observations

Time (EDT) Temp. Heat Index Dew Point Humidity Pressure Visibility Wind Dir Wind Speed Gust Speed Precip Events Conditions
12:58 AM 71.2 °F - 67.6 °F 88% 30.08 in 10.0 mi SE 6.9 mph - N/A   Scattered Clouds
1:58 AM 71.1 °F - 67.5 °F 88% 30.07 in 10.0 mi SSE 6.9 mph - N/A   Scattered Clouds
2:58 AM 70.9 °F - 68.2 °F 91% 30.08 in 10.0 mi SSE 5.8 mph - N/A   Clear
3:58 AM 70.9 °F - 68.7 °F 93% 30.08 in 10.0 mi SE 4.6 mph - N/A   Mostly Cloudy
4:58 AM 72.1 °F - 69.1 °F 90% 30.08 in 10.0 mi SSE 4.6 mph - N/A   Overcast
5:58 AM 72.1 °F - 68.9 °F 89% 30.09 in 10.0 mi South 4.6 mph - N/A   Overcast
6:58 AM 72.7 °F - 69.1 °F 88% 30.10 in 10.0 mi South 4.6 mph - N/A   Overcast
7:58 AM 73.2 °F - 69.3 °F 87% 30.10 in 10.0 mi South 3.5 mph - N/A   Overcast
8:58 AM 75.6 °F - 69.8 °F 82% 30.10 in 10.0 mi SSE 5.8 mph - N/A   Partly Cloudy
9:58 AM 76.3 °F - 70.5 °F 82% 30.11 in 10.0 mi SSE 5.8 mph - N/A   Partly Cloudy
10:58 AM 78.8 °F - 71.1 °F 77% 30.11 in 10.0 mi South 5.8 mph - N/A   Clear
11:58 AM 81.0 °F 84.9 °F 71.1 °F 72% 30.10 in 10.0 mi Variable 4.6 mph - N/A   Clear
12:58 PM 82.9 °F 87.0 °F 70.2 °F 65% 30.10 in 10.0 mi SSW 8.1 mph - N/A   Clear
1:58 PM 85.1 °F 90.1 °F 70.9 °F 62% 30.08 in 10.0 mi Variable 5.8 mph - N/A   Partly Cloudy
2:58 PM 84.2 °F 88.7 °F 70.3 °F 63% 30.08 in 10.0 mi Variable 3.5 mph - N/A   Partly Cloudy
3:58 PM 83.8 °F 88.3 °F 70.7 °F 64% 30.07 in 10.0 mi South 3.5 mph - N/A   Scattered Clouds
4:58 PM 84.2 °F 89.6 °F 71.6 °F 66% 30.05 in 10.0 mi SSW 4.6 mph - N/A   Clear
5:58 PM 84.9 °F 89.4 °F 70.3 °F 61% 30.04 in 10.0 mi SSE 5.8 mph - N/A   Clear
6:58 PM 83.5 °F 89.1 °F 72.1 °F 69% 30.05 in 10.0 mi SSW 4.6 mph - N/A   Scattered Clouds
7:58 PM 80.8 °F 84.9 °F 72.0 °F 74% 30.04 in 10.0 mi SSE 6.9 mph - N/A   Mostly Cloudy
8:58 PM 79.9 °F - 70.5 °F 73% 30.05 in 10.0 mi SSE 8.1 mph - N/A   Scattered Clouds
9:58 PM 78.3 °F - 70.2 °F 76% 30.07 in 10.0 mi SSE 6.9 mph - N/A   Scattered Clouds
10:58 PM 77.5 °F - 70.5 °F 79% 30.08 in 10.0 mi SSE 10.4 mph - N/A   Scattered Clouds
11:58 PM 76.5 °F - 70.9 °F 83% 30.08 in 10.0 mi SSE 8.1 mph - N/A   Scattered Clouds